AAL3521 KJAX-KDFW

Flight info

Callsign AAL3521
Flight time 1h 56m
Altitude 36000
Route JETIN2 CAPPS CABLO DEFUN MCB PNUTS BEREE3
Aircraft A321/M-SDE3FGHIRWY/LB1

Departure

Time 2026-05-04 18:44
Airport Jacksonville International Airport (KJAX)

Arrival

Time 2026-05-04 20:41
Airport Dallas Fort Worth International Airport (KDFW)
Time Latitude Longitude Altitude Speed Heading
2026-05-04 18:15 30.49039 -81.68681 40 ft 0 kts 120°
2026-05-04 18:32 30.49050 -81.68702 36 ft 4 kts 120°
2026-05-04 18:32 30.49066 -81.68726 35 ft 4 kts 147°
2026-05-04 18:33 30.49089 -81.68734 37 ft 4 kts 194°
2026-05-04 18:33 30.49097 -81.68732 38 ft 0 kts 206°
2026-05-04 18:36 30.49090 -81.68736 37 ft 2 kts 206°
2026-05-04 18:36 30.49076 -81.68744 35 ft 2 kts 206°
2026-05-04 18:36 30.49067 -81.68749 37 ft 0 kts 206°
2026-05-04 18:37 30.49057 -81.68756 38 ft 3 kts 213°
2026-05-04 18:38 30.49051 -81.68796 37 ft 8 kts 282°
2026-05-04 18:38 30.49083 -81.68842 39 ft 7 kts 321°
2026-05-04 18:38 30.49133 -81.68878 38 ft 10 kts 329°
2026-05-04 18:38 30.49199 -81.68915 39 ft 11 kts 349°
2026-05-04 18:39 30.49275 -81.68900 39 ft 12 kts 31°
2026-05-04 18:39 30.49321 -81.68830 39 ft 10 kts 57°
2026-05-04 18:39 30.49365 -81.68783 39 ft 8 kts
2026-05-04 18:39 30.49384 -81.68825 39 ft 7 kts 266°
2026-05-04 18:40 30.49379 -81.68888 37 ft 9 kts 265°
2026-05-04 18:40 30.49386 -81.68967 38 ft 11 kts 305°
2026-05-04 18:40 30.49455 -81.69021 39 ft 13 kts 329°
2026-05-04 18:40 30.49538 -81.69078 38 ft 12 kts 329°
2026-05-04 18:41 30.49583 -81.69109 42 ft 7 kts 330°
2026-05-04 18:41 30.49642 -81.69148 39 ft 12 kts 330°
2026-05-04 18:41 30.49682 -81.69228 42 ft 12 kts 261°
2026-05-04 18:41 30.49654 -81.69324 43 ft 13 kts 250°
2026-05-04 18:42 30.49619 -81.69435 41 ft 16 kts 250°
2026-05-04 18:42 30.49582 -81.69555 40 ft 13 kts 250°
2026-05-04 18:42 30.49550 -81.69660 38 ft 15 kts 251°
2026-05-04 18:42 30.49516 -81.69770 35 ft 14 kts 250°
2026-05-04 18:43 30.49484 -81.69887 34 ft 15 kts 266°
2026-05-04 18:43 30.49561 -81.69957 34 ft 14 kts 341°
2026-05-04 18:43 30.49633 -81.69954 34 ft 11 kts 51°
2026-05-04 18:43 30.49654 -81.69894 34 ft 11 kts 70°
2026-05-04 18:44 30.49753 -81.69569 38 ft 79 kts 70°
2026-05-04 18:44 30.49909 -81.69061 40 ft 122 kts 70°
2026-05-04 18:44 30.50375 -81.67555 468 ft 154 kts 72°
2026-05-04 18:44 30.50743 -81.66376 1273 ft 155 kts 72°
2026-05-04 18:45 30.51115 -81.65213 2021 ft 157 kts 70°
2026-05-04 18:45 30.51828 -81.64174 2277 ft 186 kts 37°
2026-05-04 18:45 30.53142 -81.63757 2564 ft 212 kts
2026-05-04 18:45 30.54653 -81.63938 2921 ft 228 kts 356°
2026-05-04 18:46 30.56293 -81.64244 3087 ft 251 kts 352°
2026-05-04 18:46 30.58058 -81.64743 3662 ft 271 kts 337°
2026-05-04 18:46 30.59567 -81.66070 4389 ft 278 kts 310°
2026-05-04 18:46 30.60482 -81.68040 5211 ft 280 kts 285°
2026-05-04 18:47 30.60600 -81.70307 6108 ft 279 kts 260°
2026-05-04 18:47 30.59909 -81.72383 6925 ft 278 kts 237°
2026-05-04 18:47 30.58788 -81.74215 7676 ft 279 kts 234°
2026-05-04 18:47 30.57651 -81.76043 8407 ft 280 kts 235°
2026-05-04 18:48 30.56510 -81.77877 9174 ft 281 kts 235°
2026-05-04 18:48 30.55364 -81.79725 9900 ft 283 kts 235°
2026-05-04 18:48 30.54192 -81.81623 10270 ft 299 kts 235°
2026-05-04 18:48 30.52937 -81.83657 10416 ft 321 kts 236°
2026-05-04 18:49 30.51598 -81.85832 10542 ft 341 kts 235°
2026-05-04 18:49 30.50179 -81.88134 10758 ft 357 kts 235°
2026-05-04 18:49 30.48725 -81.90490 11264 ft 361 kts 236°
2026-05-04 18:49 30.47252 -81.92868 11838 ft 365 kts 235°
2026-05-04 18:50 30.45779 -81.95236 12391 ft 368 kts 235°
2026-05-04 18:50 30.44260 -81.97682 12950 ft 371 kts 236°
2026-05-04 18:50 30.42759 -82.00129 13551 ft 373 kts 238°
2026-05-04 18:50 30.41540 -82.02783 14105 ft 374 kts 249°
2026-05-04 18:51 30.40763 -82.05613 14636 ft 375 kts 256°
2026-05-04 18:51 30.40085 -82.08536 15184 ft 377 kts 256°
2026-05-04 18:51 30.39660 -82.11528 15721 ft 378 kts 266°
2026-05-04 18:51 30.39780 -82.14567 16267 ft 380 kts 277°
2026-05-04 18:52 30.40146 -82.17612 16790 ft 382 kts 277°
2026-05-04 18:52 30.40508 -82.20665 17325 ft 384 kts 277°
2026-05-04 18:52 30.40868 -82.23732 17819 ft 386 kts 277°
2026-05-04 18:52 30.41233 -82.26819 18317 ft 388 kts 277°
2026-05-04 18:53 30.41601 -82.29922 18753 ft 390 kts 277°
2026-05-04 18:53 30.41971 -82.33039 19170 ft 391 kts 277°
2026-05-04 18:53 30.42342 -82.36167 19601 ft 392 kts 277°
2026-05-04 18:53 30.42716 -82.39307 20038 ft 394 kts 277°
2026-05-04 18:54 30.43088 -82.42453 20446 ft 395 kts 277°
2026-05-04 18:54 30.43461 -82.45611 20873 ft 396 kts 277°
2026-05-04 18:54 30.43868 -82.49065 21339 ft 398 kts 277°
2026-05-04 18:54 30.44208 -82.51961 21727 ft 399 kts 277°
2026-05-04 18:55 30.44583 -82.55160 22138 ft 400 kts 277°
2026-05-04 18:55 30.45332 -82.61571 22926 ft 403 kts 277°
2026-05-04 18:55 30.45708 -82.64797 23320 ft 404 kts 277°
2026-05-04 18:56 30.46081 -82.68034 23711 ft 406 kts 277°
2026-05-04 18:56 30.46454 -82.71280 24024 ft 407 kts 277°
2026-05-04 18:56 30.46827 -82.74539 24362 ft 408 kts 277°
2026-05-04 18:56 30.47203 -82.77801 24703 ft 409 kts 277°
2026-05-04 18:57 30.47582 -82.81069 25048 ft 410 kts 277°
2026-05-04 18:57 30.47960 -82.84345 25400 ft 410 kts 277°
2026-05-04 18:57 30.48339 -82.87632 25707 ft 411 kts 277°
2026-05-04 18:57 30.48714 -82.90921 26038 ft 412 kts 277°
2026-05-04 18:58 30.49090 -82.94215 26355 ft 413 kts 277°
2026-05-04 18:58 30.49465 -82.97514 26656 ft 414 kts 277°
2026-05-04 18:58 30.49839 -83.00825 26929 ft 415 kts 277°
2026-05-04 18:58 30.50212 -83.04142 27203 ft 415 kts 277°
2026-05-04 18:59 30.50587 -83.07466 27465 ft 416 kts 277°
2026-05-04 18:59 30.50962 -83.10800 27711 ft 417 kts 277°
2026-05-04 18:59 30.51339 -83.14134 27947 ft 417 kts 277°
2026-05-04 18:59 30.51717 -83.17471 28221 ft 417 kts 277°
2026-05-04 19:00 30.52090 -83.20796 28571 ft 414 kts 277°
2026-05-04 19:00 30.52459 -83.24095 28924 ft 412 kts 277°
2026-05-04 19:00 30.52828 -83.27378 29264 ft 410 kts 277°
2026-05-04 19:00 30.53194 -83.30651 29595 ft 408 kts 277°
2026-05-04 19:01 30.53556 -83.33913 29936 ft 406 kts 277°
2026-05-04 19:01 30.53916 -83.37163 30255 ft 405 kts 277°
2026-05-04 19:01 30.54274 -83.40397 30528 ft 403 kts 277°
2026-05-04 19:01 30.54623 -83.43572 30790 ft 402 kts 277°
2026-05-04 19:02 30.54977 -83.46796 31035 ft 402 kts 277°
2026-05-04 19:02 30.55327 -83.50005 31286 ft 401 kts 277°
2026-05-04 19:02 30.55675 -83.53213 31537 ft 400 kts 277°
2026-05-04 19:02 30.56021 -83.56409 31783 ft 399 kts 277°
2026-05-04 19:03 30.56367 -83.59600 32031 ft 399 kts 277°
2026-05-04 19:03 30.56714 -83.62791 32280 ft 398 kts 277°
2026-05-04 19:03 30.57061 -83.65974 32529 ft 397 kts 277°
2026-05-04 19:03 30.57407 -83.69152 32770 ft 396 kts 277°
2026-05-04 19:04 30.57751 -83.72322 33007 ft 396 kts 277°
2026-05-04 19:04 30.58093 -83.75490 33254 ft 395 kts 277°
2026-05-04 19:04 30.58432 -83.78657 33477 ft 395 kts 277°
2026-05-04 19:04 30.58767 -83.81817 33727 ft 394 kts 277°
2026-05-04 19:05 30.59101 -83.84969 33970 ft 394 kts 277°
2026-05-04 19:05 30.59437 -83.88121 34187 ft 393 kts 277°
2026-05-04 19:05 30.59773 -83.91269 34399 ft 392 kts 277°
2026-05-04 19:05 30.60108 -83.94409 34611 ft 391 kts 277°
2026-05-04 19:06 30.60441 -83.97537 34820 ft 390 kts 277°
2026-05-04 19:06 30.60771 -84.00665 35026 ft 390 kts 277°
2026-05-04 19:06 30.61099 -84.03782 35227 ft 389 kts 277°
2026-05-04 19:06 30.61424 -84.06898 35427 ft 388 kts 277°
2026-05-04 19:07 30.61749 -84.10008 35627 ft 388 kts 277°
2026-05-04 19:07 30.62071 -84.13105 35829 ft 387 kts 277°
2026-05-04 19:07 30.62396 -84.16211 36024 ft 387 kts 277°
2026-05-04 19:07 30.62722 -84.19308 36090 ft 387 kts 277°
2026-05-04 19:08 30.63371 -84.25463 36097 ft 386 kts 277°
2026-05-04 19:08 30.64016 -84.31694 36095 ft 386 kts 277°
2026-05-04 19:09 30.64647 -84.37879 36095 ft 386 kts 277°
2026-05-04 19:09 30.65274 -84.44076 36095 ft 386 kts 277°
2026-05-04 19:10 30.65901 -84.50269 36101 ft 386 kts 277°
2026-05-04 19:10 30.66532 -84.56472 36106 ft 387 kts 277°
2026-05-04 19:11 30.67166 -84.62679 36110 ft 387 kts 277°
2026-05-04 19:11 30.67798 -84.68895 36101 ft 387 kts 278°
2026-05-04 19:12 30.68723 -84.78221 36108 ft 388 kts 278°
2026-05-04 19:13 30.69341 -84.84448 36109 ft 388 kts 278°
2026-05-04 19:13 30.69954 -84.90673 36110 ft 388 kts 278°
2026-05-04 19:14 30.70561 -84.96901 36110 ft 388 kts 278°
2026-05-04 19:14 30.71167 -85.03128 36111 ft 388 kts 278°
2026-05-04 19:15 30.71777 -85.09348 36104 ft 388 kts 278°
2026-05-04 19:15 30.72382 -85.15577 36107 ft 388 kts 278°
2026-05-04 19:16 30.72986 -85.21808 36111 ft 388 kts 278°
2026-05-04 19:16 30.73580 -85.28039 36108 ft 388 kts 278°
2026-05-04 19:17 30.74071 -85.33219 36100 ft 388 kts 278°
2026-05-04 19:17 30.74659 -85.39452 36107 ft 388 kts 278°
2026-05-04 19:18 30.75246 -85.45681 36103 ft 388 kts 278°
2026-05-04 19:18 30.75836 -85.51912 36116 ft 387 kts 278°
2026-05-04 19:19 30.76423 -85.58135 36124 ft 387 kts 278°
2026-05-04 19:19 30.77001 -85.64354 36123 ft 387 kts 278°
2026-05-04 19:20 30.77574 -85.70574 36115 ft 387 kts 278°
2026-05-04 19:20 30.78145 -85.76798 36110 ft 387 kts 278°
2026-05-04 19:21 30.78714 -85.83019 36104 ft 387 kts 278°
2026-05-04 19:21 30.79275 -85.89199 36114 ft 387 kts 278°
2026-05-04 19:22 30.79841 -85.95459 36109 ft 387 kts 278°
2026-05-04 19:22 30.80399 -86.01678 36106 ft 387 kts 278°
2026-05-04 19:23 30.80958 -86.07902 36105 ft 387 kts 278°
2026-05-04 19:23 30.81510 -86.14084 36104 ft 386 kts 279°
2026-05-04 19:24 30.82283 -86.20302 36121 ft 385 kts 282°
2026-05-04 19:24 30.83184 -86.26442 36128 ft 385 kts 282°
2026-05-04 19:25 30.84050 -86.32588 36127 ft 385 kts 282°
2026-05-04 19:25 30.84874 -86.38736 36128 ft 385 kts 281°
2026-05-04 19:26 30.85681 -86.44889 36131 ft 385 kts 281°
2026-05-04 19:26 30.86495 -86.51037 36131 ft 384 kts 281°
2026-05-04 19:27 30.87308 -86.57189 36121 ft 384 kts 282°
2026-05-04 19:27 30.88116 -86.63338 36124 ft 384 kts 282°
2026-05-04 19:28 30.88921 -86.69487 36121 ft 384 kts 282°
2026-05-04 19:28 30.89721 -86.75632 36117 ft 384 kts 282°
2026-05-04 19:29 30.90520 -86.81781 36101 ft 384 kts 282°
2026-05-04 19:29 30.91320 -86.87920 36102 ft 384 kts 282°
2026-05-04 19:30 30.92113 -86.94070 36122 ft 384 kts 282°
2026-05-04 19:30 30.92906 -87.00217 36120 ft 383 kts 282°
2026-05-04 19:31 30.93694 -87.06343 36113 ft 382 kts 282°
2026-05-04 19:31 30.94470 -87.12459 36092 ft 381 kts 282°
2026-05-04 19:32 30.95244 -87.18571 36088 ft 381 kts 282°
2026-05-04 19:32 30.96020 -87.24674 36086 ft 381 kts 282°
2026-05-04 19:33 30.96792 -87.30775 36095 ft 381 kts 282°
2026-05-04 19:33 30.97563 -87.36876 36090 ft 380 kts 283°
2026-05-04 19:34 30.98323 -87.42961 36100 ft 379 kts 282°
2026-05-04 19:34 30.99076 -87.49041 36102 ft 379 kts 282°
2026-05-04 19:35 30.99831 -87.55121 36104 ft 379 kts 283°
2026-05-04 19:35 31.00588 -87.61192 36111 ft 379 kts 282°
2026-05-04 19:36 31.01338 -87.67265 36109 ft 378 kts 282°
2026-05-04 19:36 31.02077 -87.73342 36096 ft 378 kts 283°
2026-05-04 19:37 31.02815 -87.79403 36113 ft 377 kts 283°
2026-05-04 19:37 31.03554 -87.85450 36115 ft 376 kts 283°
2026-05-04 19:38 31.04287 -87.91488 36108 ft 376 kts 283°
2026-05-04 19:38 31.05016 -87.97513 36108 ft 375 kts 283°
2026-05-04 19:39 31.06588 -88.10641 36095 ft 375 kts 283°
2026-05-04 19:39 31.09422 -88.34592 36105 ft 372 kts 283°
2026-05-04 19:40 31.12205 -88.58454 36104 ft 369 kts 284°
2026-05-04 19:40 31.14930 -88.82174 36100 ft 368 kts 284°
2026-05-04 19:41 31.17599 -89.05788 36091 ft 367 kts 284°
2026-05-04 19:41 31.20215 -89.29396 36109 ft 366 kts 284°
2026-05-04 19:42 31.22783 -89.52980 36106 ft 365 kts 283°
2026-05-04 19:42 31.25297 -89.76478 36048 ft 359 kts 283°
2026-05-04 19:43 31.27748 -89.99619 36040 ft 361 kts 283°
2026-05-04 19:43 31.30156 -90.23028 36098 ft 363 kts 283°
2026-05-04 19:44 31.32603 -90.46463 36112 ft 362 kts 283°
2026-05-04 19:44 31.34881 -90.68772 36102 ft 361 kts 283°
2026-05-04 19:45 31.37203 -90.91807 36081 ft 360 kts 283°
2026-05-04 19:45 31.39518 -91.15077 36070 ft 360 kts 283°
2026-05-04 19:46 31.41765 -91.38357 36091 ft 359 kts 283°
2026-05-04 19:46 31.43834 -91.60077 36078 ft 358 kts 282°
2026-05-04 19:47 31.45826 -91.81175 36067 ft 357 kts 282°
2026-05-04 19:47 31.47940 -92.04328 36060 ft 357 kts 282°
2026-05-04 19:48 31.50019 -92.27465 36069 ft 357 kts 282°
2026-05-04 19:48 31.52067 -92.50579 36078 ft 356 kts 282°
2026-05-04 19:49 31.54053 -92.73683 36060 ft 356 kts 281°
2026-05-04 19:49 31.56018 -92.96791 36048 ft 356 kts 281°
2026-05-04 19:50 31.57933 -93.19944 36035 ft 356 kts 281°
2026-05-04 19:50 31.59792 -93.43094 36025 ft 356 kts 281°
2026-05-04 19:51 31.60660 -93.53467 36028 ft 354 kts 284°
2026-05-04 19:51 31.61946 -93.58950 36031 ft 351 kts 290°
2026-05-04 19:52 31.63332 -93.64436 36029 ft 351 kts 289°
2026-05-04 19:52 31.64708 -93.69926 36030 ft 350 kts 289°
2026-05-04 19:53 31.66087 -93.75411 36033 ft 350 kts 289°
2026-05-04 19:53 31.67457 -93.80875 36011 ft 350 kts 289°
2026-05-04 19:54 31.68718 -93.85918 36000 ft 350 kts 289°
2026-05-04 19:54 31.70091 -93.91409 36009 ft 350 kts 289°
2026-05-04 19:55 31.71465 -93.96900 36014 ft 351 kts 289°
2026-05-04 19:55 31.72615 -94.01505 36018 ft 351 kts 289°
2026-05-04 19:56 31.73980 -94.07003 36032 ft 350 kts 289°
2026-05-04 19:56 31.75338 -94.12468 36025 ft 348 kts 289°
2026-05-04 19:57 31.76684 -94.17928 36025 ft 348 kts 289°
2026-05-04 19:57 31.78032 -94.23404 35994 ft 349 kts 289°
2026-05-04 19:58 31.79383 -94.28887 36009 ft 350 kts 289°
2026-05-04 19:58 31.80740 -94.34384 36008 ft 350 kts 289°
2026-05-04 19:59 31.82101 -94.39879 36018 ft 350 kts 289°
2026-05-04 19:59 31.83449 -94.45385 36017 ft 350 kts 289°
2026-05-04 20:00 31.84793 -94.50890 36010 ft 350 kts 289°
2026-05-04 20:00 31.86141 -94.56397 36016 ft 351 kts 289°
2026-05-04 20:01 31.87488 -94.61921 36002 ft 351 kts 289°
2026-05-04 20:01 31.88822 -94.67445 36004 ft 351 kts 289°
2026-05-04 20:02 31.90162 -94.72971 36004 ft 351 kts 289°
2026-05-04 20:02 31.91507 -94.78494 36007 ft 351 kts 289°
2026-05-04 20:03 31.92833 -94.84024 36003 ft 351 kts 289°
2026-05-04 20:03 31.94162 -94.89552 36006 ft 351 kts 289°
2026-05-04 20:04 31.95500 -94.95081 36011 ft 351 kts 289°
2026-05-04 20:04 31.96832 -95.00618 35979 ft 351 kts 288°
2026-05-04 20:05 31.98155 -95.06154 36000 ft 349 kts 288°
2026-05-04 20:05 31.99466 -95.11656 35997 ft 349 kts 288°
2026-05-04 20:06 32.00778 -95.17155 35985 ft 349 kts 288°
2026-05-04 20:06 32.02096 -95.22660 35988 ft 349 kts 288°
2026-05-04 20:07 32.03412 -95.28177 35984 ft 349 kts 289°
2026-05-04 20:07 32.04721 -95.33690 35960 ft 349 kts 288°
2026-05-04 20:08 32.06016 -95.39171 35965 ft 349 kts 288°
2026-05-04 20:08 32.07318 -95.44687 35968 ft 349 kts 288°
2026-05-04 20:09 32.08617 -95.50213 35971 ft 350 kts 288°
2026-05-04 20:09 32.09913 -95.55735 35978 ft 350 kts 288°
2026-05-04 20:10 32.11215 -95.61271 35981 ft 350 kts 288°
2026-05-04 20:10 32.12515 -95.66804 35977 ft 350 kts 288°
2026-05-04 20:11 32.13811 -95.72339 35671 ft 349 kts 288°
2026-05-04 20:11 32.14453 -95.75100 35429 ft 349 kts 288°
2026-05-04 20:11 32.15098 -95.77862 35181 ft 349 kts 288°
2026-05-04 20:11 32.15747 -95.80637 34458 ft 352 kts 288°
2026-05-04 20:12 32.16396 -95.83429 33617 ft 355 kts 288°
2026-05-04 20:12 32.17051 -95.86255 32672 ft 358 kts 288°
2026-05-04 20:12 32.17712 -95.89105 31776 ft 361 kts 287°
2026-05-04 20:12 32.18379 -95.91974 30891 ft 364 kts 287°
2026-05-04 20:13 32.19052 -95.94876 29979 ft 368 kts 287°
2026-05-04 20:13 32.19725 -95.97798 29133 ft 368 kts 287°
2026-05-04 20:13 32.20362 -96.00578 28483 ft 365 kts 287°
2026-05-04 20:13 32.21026 -96.03459 27797 ft 362 kts 287°
2026-05-04 20:14 32.21687 -96.06315 27122 ft 360 kts 287°
2026-05-04 20:14 32.22347 -96.09154 26432 ft 358 kts 286°
2026-05-04 20:14 32.23005 -96.11993 25758 ft 357 kts 286°
2026-05-04 20:14 32.23653 -96.14817 25105 ft 357 kts 286°
2026-05-04 20:15 32.24303 -96.17648 24435 ft 357 kts 286°
2026-05-04 20:15 32.24951 -96.20474 23772 ft 357 kts 286°
2026-05-04 20:15 32.25596 -96.23300 23250 ft 353 kts 286°
2026-05-04 20:15 32.26235 -96.26110 22988 ft 356 kts 286°
2026-05-04 20:16 32.26880 -96.28939 22721 ft 357 kts 286°
2026-05-04 20:16 32.27758 -96.31668 22457 ft 355 kts 297°
2026-05-04 20:16 32.29122 -96.34098 22202 ft 356 kts 308°
2026-05-04 20:16 32.30862 -96.36196 21869 ft 358 kts 313°
2026-05-04 20:17 32.32647 -96.38233 21296 ft 355 kts 313°
2026-05-04 20:17 32.34415 -96.40253 20704 ft 352 kts 313°
2026-05-04 20:17 32.36162 -96.42257 20122 ft 349 kts 313°
2026-05-04 20:17 32.37881 -96.44237 19554 ft 347 kts 313°
2026-05-04 20:18 32.39569 -96.46182 19008 ft 345 kts 313°
2026-05-04 20:18 32.41286 -96.48152 18447 ft 343 kts 313°
2026-05-04 20:18 32.42996 -96.50109 17905 ft 340 kts 313°
2026-05-04 20:18 32.44699 -96.52062 17382 ft 340 kts 313°
2026-05-04 20:19 32.46379 -96.53997 17025 ft 330 kts 312°
2026-05-04 20:19 32.47972 -96.55835 16773 ft 319 kts 312°
2026-05-04 20:19 32.49563 -96.57671 16511 ft 314 kts 312°
2026-05-04 20:19 32.51105 -96.59445 16266 ft 312 kts 312°
2026-05-04 20:20 32.52665 -96.61239 16003 ft 312 kts 312°
2026-05-04 20:20 32.54241 -96.63045 15628 ft 311 kts 313°
2026-05-04 20:20 32.55793 -96.64820 15240 ft 310 kts 313°
2026-05-04 20:20 32.57341 -96.66595 14786 ft 310 kts 313°
2026-05-04 20:21 32.58903 -96.68373 14006 ft 311 kts 313°
2026-05-04 20:21 32.60459 -96.70126 13265 ft 304 kts 313°
2026-05-04 20:21 32.63349 -96.73351 12769 ft 273 kts 313°
2026-05-04 20:22 32.64714 -96.74888 12514 ft 269 kts 312°
2026-05-04 20:22 32.66065 -96.76417 12279 ft 268 kts 312°
2026-05-04 20:22 32.67407 -96.77939 12079 ft 266 kts 312°
2026-05-04 20:22 32.68747 -96.79466 12019 ft 267 kts 312°
2026-05-04 20:23 32.70088 -96.80990 12024 ft 269 kts 312°
2026-05-04 20:23 32.71446 -96.82527 12033 ft 268 kts 312°
2026-05-04 20:23 32.72797 -96.84059 12028 ft 268 kts 312°
2026-05-04 20:23 32.74146 -96.85594 12024 ft 270 kts 312°
2026-05-04 20:24 32.75500 -96.87134 12024 ft 268 kts 312°
2026-05-04 20:24 32.76814 -96.88621 12002 ft 253 kts 312°
2026-05-04 20:24 32.78051 -96.90014 12005 ft 238 kts 313°
2026-05-04 20:24 32.79445 -96.91089 12006 ft 244 kts 332°
2026-05-04 20:25 32.81130 -96.91505 12009 ft 254 kts 353°
2026-05-04 20:25 32.82309 -96.91505 12009 ft 256 kts 353°
2026-05-04 20:25 32.84689 -96.91485 12008 ft 256 kts 353°
2026-05-04 20:25 32.86493 -96.91468 11980 ft 255 kts 353°
2026-05-04 20:26 32.88266 -96.91451 11673 ft 254 kts 353°
2026-05-04 20:26 32.90025 -96.91437 11223 ft 253 kts 353°
2026-05-04 20:26 32.91786 -96.91425 10762 ft 253 kts 353°
2026-05-04 20:26 32.93547 -96.91413 10298 ft 253 kts 353°
2026-05-04 20:27 32.95304 -96.91400 9857 ft 252 kts 353°
2026-05-04 20:27 32.97060 -96.91386 9393 ft 252 kts 353°
2026-05-04 20:27 32.98806 -96.91374 8950 ft 250 kts 353°
2026-05-04 20:27 33.00538 -96.91365 8479 ft 248 kts 353°
2026-05-04 20:28 33.01681 -96.91359 8158 ft 248 kts 354°
2026-05-04 20:28 33.03987 -96.91347 7531 ft 247 kts 354°
2026-05-04 20:28 33.05708 -96.91335 7048 ft 247 kts 354°
2026-05-04 20:28 33.07424 -96.91322 6584 ft 246 kts 353°
2026-05-04 20:29 33.09139 -96.91310 6133 ft 246 kts 354°
2026-05-04 20:29 33.10826 -96.91297 5658 ft 246 kts 353°
2026-05-04 20:29 33.12534 -96.91276 5212 ft 244 kts 354°
2026-05-04 20:29 33.14235 -96.91243 4792 ft 245 kts 354°
2026-05-04 20:30 33.15913 -96.91227 4462 ft 244 kts 353°
2026-05-04 20:30 33.17614 -96.91233 4078 ft 245 kts 355°
2026-05-04 20:30 33.19308 -96.91258 3995 ft 247 kts 353°
2026-05-04 20:30 33.21045 -96.91298 3997 ft 251 kts 355°
2026-05-04 20:31 33.22757 -96.91457 4012 ft 237 kts 341°
2026-05-04 20:31 33.24181 -96.92243 3998 ft 219 kts 314°
2026-05-04 20:31 33.25163 -96.93541 3998 ft 206 kts 293°
2026-05-04 20:31 33.25649 -96.95086 3997 ft 195 kts 272°
2026-05-04 20:32 33.25661 -96.96659 3998 ft 187 kts 254°
2026-05-04 20:32 33.25238 -96.98106 3999 ft 185 kts 237°
2026-05-04 20:32 33.24734 -96.98945 4004 ft 183 kts 225°
2026-05-04 20:32 33.23870 -97.00059 4002 ft 183 kts 226°
2026-05-04 20:33 33.23024 -97.01166 4005 ft 183 kts 227°
2026-05-04 20:33 33.22158 -97.02306 4000 ft 184 kts 226°
2026-05-04 20:33 33.21288 -97.03437 4008 ft 185 kts 223°
2026-05-04 20:33 33.20288 -97.04373 4004 ft 183 kts 212°
2026-05-04 20:34 33.19138 -97.04994 4005 ft 181 kts 197°
2026-05-04 20:34 33.17878 -97.05233 4003 ft 186 kts 189°
2026-05-04 20:34 33.16594 -97.05309 4004 ft 187 kts 186°
2026-05-04 20:34 33.15273 -97.05335 4003 ft 188 kts 185°
2026-05-04 20:35 33.13967 -97.05347 4005 ft 187 kts 185°
2026-05-04 20:35 33.12663 -97.05355 4006 ft 186 kts 185°
2026-05-04 20:35 33.11404 -97.05359 4005 ft 171 kts 186°
2026-05-04 20:35 33.10284 -97.05363 3995 ft 151 kts 185°
2026-05-04 20:36 33.09288 -97.05369 3935 ft 138 kts 185°
2026-05-04 20:36 33.08339 -97.05375 3808 ft 135 kts 185°
2026-05-04 20:36 33.07405 -97.05381 3658 ft 134 kts 184°
2026-05-04 20:36 33.06473 -97.05387 3496 ft 132 kts 183°
2026-05-04 20:37 33.05557 -97.05392 3343 ft 132 kts 182°
2026-05-04 20:37 33.04640 -97.05397 3177 ft 131 kts 182°
2026-05-04 20:37 33.03727 -97.05402 3000 ft 132 kts 181°
2026-05-04 20:37 33.02816 -97.05406 2835 ft 130 kts 182°
2026-05-04 20:38 33.01911 -97.05411 2669 ft 130 kts 181°
2026-05-04 20:38 33.01011 -97.05416 2500 ft 129 kts 182°
2026-05-04 20:38 33.00118 -97.05420 2334 ft 128 kts 182°
2026-05-04 20:38 32.99221 -97.05425 2164 ft 130 kts 183°
2026-05-04 20:39 32.98322 -97.05430 1993 ft 130 kts 181°
2026-05-04 20:39 32.97426 -97.05434 1825 ft 128 kts 181°
2026-05-04 20:39 32.96540 -97.05439 1674 ft 126 kts 180°
2026-05-04 20:39 32.95646 -97.05442 1466 ft 133 kts 181°
2026-05-04 20:40 32.94726 -97.05448 1334 ft 128 kts 179°
2026-05-04 20:40 32.93798 -97.05459 1092 ft 131 kts 181°
2026-05-04 20:40 32.92910 -97.05460 919 ft 126 kts 180°
2026-05-04 20:40 32.92027 -97.05462 736 ft 129 kts 180°
2026-05-04 20:41 32.91131 -97.05468 614 ft 122 kts 179°
2026-05-04 20:41 32.90397 -97.05470 598 ft 84 kts 180°
2026-05-04 20:41 32.90055 -97.05466 598 ft 22 kts 170°
2026-05-04 20:41 32.89922 -97.05389 598 ft 21 kts 150°
2026-05-04 20:42 32.89815 -97.05316 598 ft 10 kts 150°
2026-05-04 20:42 32.89762 -97.05262 598 ft 11 kts 113°
2026-05-04 20:42 32.89760 -97.05164 598 ft 13 kts 90°
2026-05-04 20:42 32.89760 -97.05049 598 ft 15 kts 90°
2026-05-04 20:43 32.89759 -97.04934 598 ft 10 kts 90°
2026-05-04 20:43 32.89807 -97.04889 598 ft 11 kts
2026-05-04 20:43 32.89908 -97.04888 598 ft 17 kts
2026-05-04 20:43 32.90033 -97.04887 598 ft 17 kts
2026-05-04 20:44 32.90109 -97.04871 598 ft 10 kts 49°
2026-05-04 20:44 32.90116 -97.04784 598 ft 13 kts 90°
2026-05-04 20:44 32.90125 -97.04685 598 ft 11 kts 79°
2026-05-04 20:44 32.90135 -97.04601 598 ft 9 kts 89°
2026-05-04 20:45 32.90139 -97.04533 598 ft 7 kts 72°
2026-05-04 20:45 32.90156 -97.04487 598 ft 5 kts 68°
2026-05-04 20:45 32.90156 -97.04450 598 ft 4 kts 109°
2026-05-04 20:45 32.90151 -97.04424 598 ft 2 kts 80°
2026-05-04 20:46 32.90167 -97.04404 598 ft 5 kts 40°
2026-05-04 20:46 32.90185 -97.04386 598 ft 1 kts 39°
2026-05-04 20:46 32.90192 -97.04379 598 ft 1 kts 40°
2026-05-04 20:46 32.90193 -97.04378 598 ft 0 kts 40°
2026-05-04 20:47 32.90194 -97.04377 598 ft 0 kts 40°